When you browse on this site, cookies collect data to enhance your experience and personalize the content and advertising you see.
Visit our Privacy Policy to learn more. By continuing to use the site, you agree to this use of cookies and data.
  • In Hungary
  • List of Countries
  • For 7 days
  • Water Temperature
  • Satellite Maps
  • Weather Map
  • News
  • Weather Widgets
  • user-avatar
    Login

    Hourly Weather Ges

    Today, 26 May, Sunday

    Time Temperature Precipitation Wind Pressure Humidity
    00:00 +12°C° 0 mm 3 mps 745 mmHg 93%
    01:00 +13°C° 0 mm 2 mps 745 mmHg 94%
    02:00 +12°C° 0 mm 2 mps 745 mmHg 95%
    03:00 +12°C° 0 mm 2 mps 745 mmHg 96%
    04:00 +10°C° 0 mm 2 mps 746 mmHg 96%
    05:00 +10°C° 0 mm 2 mps 746 mmHg 96%
    06:00 +11°C° 0 mm 3 mps 746 mmHg 90%
    07:00 +12°C° 0 mm 4 mps 746 mmHg 83%
    08:00 +14°C° 0 mm 4 mps 746 mmHg 77%
    09:00 +15°C° 0 mm 5 mps 746 mmHg 74%
    10:00 +15°C° 0 mm 5 mps 746 mmHg 72%
    11:00 +16°C° 0 mm 5 mps 746 mmHg 70%
    12:00 +17°C° 0 mm 5 mps 746 mmHg 68%
    13:00 +19°C° 0 mm 5 mps 746 mmHg 67%
    14:00 +19°C° 0 mm 5 mps 746 mmHg 65%
    15:00 +19°C° 0 mm 5 mps 745 mmHg 65%
    16:00 +20°C° 0 mm 4 mps 745 mmHg 64%
    17:00 +20°C° 0 mm 4 mps 745 mmHg 63%
    18:00 +19°C° 0 mm 3 mps 745 mmHg 69%
    19:00 +17°C° 0 mm 2 mps 745 mmHg 74%
    20:00 +16°C° 0 mm 1 mps 745 mmHg 80%
    21:00 +15°C° 0 mm 1 mps 745 mmHg 82%
    22:00 +15°C° 0 mm 2 mps 745 mmHg 84%
    23:00 +14°C° 0 mm 2 mps 745 mmHg 86%

    Tomorrow, 27 May, Monday

    Time Temperature Precipitation Wind Pressure Humidity
    00:00 +14°C° 0 mm 2 mps 745 mmHg 87%
    01:00 +13°C° 0 mm 2 mps 745 mmHg 87%
    02:00 +13°C° 0 mm 2 mps 745 mmHg 87%
    03:00 +12°C° 0 mm 3 mps 745 mmHg 89%
    04:00 +12°C° 0 mm 3 mps 744 mmHg 91%
    05:00 +12°C° 0 mm 3 mps 744 mmHg 93%
    06:00 +14°C° 0 mm 3 mps 744 mmHg 88%
    07:00 +17°C° 0 mm 4 mps 744 mmHg 84%
    08:00 +19°C° 0 mm 4 mps 744 mmHg 79%
    09:00 +20°C° 0.2 mm 5 mps 744 mmHg 75%
    10:00 +22°C° 0.2 mm 5 mps 744 mmHg 71%
    11:00 +23°C° 0.2 mm 5 mps 744 mmHg 66%
    12:00 +23°C° 0.4 mm 6 mps 744 mmHg 66%
    13:00 +23°C° 0.4 mm 6 mps 744 mmHg 66%
    14:00 +24°C° 0.4 mm 6 mps 744 mmHg 66%
    15:00 +25°C° 0.4 mm 5 mps 743 mmHg 67%
    16:00 +25°C° 0.4 mm 5 mps 743 mmHg 68%
    17:00 +25°C° 0.4 mm 4 mps 743 mmHg 69%
    18:00 +22°C° 0.1 mm 4 mps 743 mmHg 74%
    19:00 +21°C° 0.1 mm 3 mps 743 mmHg 78%
    20:00 +20°C° 0.1 mm 2 mps 743 mmHg 83%
    21:00 +19°C° 0.1 mm 3 mps 743 mmHg 85%
    22:00 +18°C° 0.1 mm 3 mps 743 mmHg 87%
    23:00 +18°C° 0.1 mm 3 mps 743 mmHg 89%

    Day after tomorrow, 28 May, Tuesday

    Time Temperature Precipitation Wind Pressure Humidity
    00:00 +17°C° 0 mm 3 mps 743 mmHg 89%
    01:00 +17°C° 0 mm 2 mps 742 mmHg 90%
    02:00 +17°C° 0 mm 2 mps 742 mmHg 90%
    03:00 +17°C° 0.2 mm 3 mps 742 mmHg 91%
    04:00 +17°C° 0.2 mm 3 mps 741 mmHg 93%
    05:00 +17°C° 0.2 mm 4 mps 741 mmHg 94%
    06:00 +17°C° 0.1 mm 5 mps 741 mmHg 91%
    07:00 +19°C° 0.1 mm 5 mps 741 mmHg 88%
    08:00 +20°C° 0.1 mm 6 mps 741 mmHg 84%
    09:00 +22°C° 0.1 mm 6 mps 740 mmHg 80%
    10:00 +23°C° 0.1 mm 6 mps 740 mmHg 75%
    11:00 +24°C° 0.1 mm 6 mps 740 mmHg 71%
    12:00 +26°C° 0 mm 5 mps 740 mmHg 68%
    13:00 +26°C° 0 mm 5 mps 740 mmHg 65%
    14:00 +27°C° 0 mm 4 mps 739 mmHg 62%
    15:00 +25°C° 0.9 mm 4 mps 739 mmHg 70%
    16:00 +22°C° 0.9 mm 5 mps 739 mmHg 79%
    17:00 +20°C° 0.9 mm 5 mps 739 mmHg 88%
    18:00 +20°C° 0 mm 4 mps 739 mmHg 88%
    19:00 +19°C° 0 mm 3 mps 738 mmHg 89%
    20:00 +19°C° 0 mm 3 mps 738 mmHg 90%
    21:00 +19°C° 0.2 mm 3 mps 738 mmHg 91%
    22:00 +18°C° 0.2 mm 3 mps 738 mmHg 93%
    23:00 +18°C° 0.2 mm 3 mps 738 mmHg 94%

    29 May, Wednesday

    Time Temperature Precipitation Wind Pressure Humidity
    00:00 +17°C° 0 mm 3 mps 738 mmHg 94%
    01:00 +17°C° 0 mm 3 mps 738 mmHg 94%
    02:00 +17°C° 0 mm 3 mps 738 mmHg 95%
    03:00 +16°C° 0 mm 3 mps 738 mmHg 95%
    04:00 +16°C° 0 mm 3 mps 739 mmHg 95%
    05:00 +14°C° 0 mm 3 mps 739 mmHg 96%
    06:00 +16°C° 0 mm 3 mps 739 mmHg 94%
    07:00 +17°C° 0 mm 3 mps 740 mmHg 92%
    08:00 +18°C° 0 mm 3 mps 740 mmHg 90%
    09:00 +18°C° 0 mm 3 mps 741 mmHg 89%
    10:00 +19°C° 0 mm 3 mps 741 mmHg 88%
    11:00 +19°C° 0 mm 3 mps 742 mmHg 88%
    12:00 +19°C° 0.2 mm 3 mps 742 mmHg 86%
    13:00 +19°C° 0.2 mm 4 mps 742 mmHg 84%
    14:00 +20°C° 0.2 mm 4 mps 743 mmHg 83%
    15:00 +19°C° 0.1 mm 4 mps 743 mmHg 83%
    16:00 +19°C° 0.1 mm 4 mps 743 mmHg 83%
    17:00 +19°C° 0.1 mm 4 mps 743 mmHg 83%
    18:00 +18°C° 0 mm 4 mps 743 mmHg 85%
    19:00 +15°C° 0 mm 4 mps 743 mmHg 86%
    20:00 +14°C° 0 mm 4 mps 743 mmHg 88%
    21:00 +14°C° 0 mm 4 mps 744 mmHg 88%
    22:00 +14°C° 0 mm 3 mps 744 mmHg 89%
    23:00 +13°C° 0 mm 3 mps 744 mmHg 89%

    30 May, Thursday

    Time Temperature Precipitation Wind Pressure Humidity
    00:00 +13°C° 0 mm 3 mps 745 mmHg 89%
    01:00 +13°C° 0 mm 4 mps 745 mmHg 90%
    02:00 +13°C° 0 mm 4 mps 745 mmHg 90%
    03:00 +10°C° 0.5 mm 5 mps 745 mmHg 91%
    04:00 +9°C° 0.5 mm 5 mps 746 mmHg 92%
    05:00 +7°C° 0.5 mm 6 mps 746 mmHg 93%
    06:00 +7°C° 1.5 mm 5 mps 746 mmHg 93%
    07:00 +7°C° 1.5 mm 5 mps 747 mmHg 93%
    08:00 +7°C° 1.5 mm 5 mps 747 mmHg 94%
    09:00 +8°C° 0.1 mm 5 mps 748 mmHg 92%
    10:00 +8°C° 0.1 mm 5 mps 748 mmHg 89%
    11:00 +9°C° 0.1 mm 5 mps 748 mmHg 87%
    12:00 +12°C° 0 mm 5 mps 749 mmHg 82%
    13:00 +13°C° 0 mm 5 mps 749 mmHg 76%
    14:00 +15°C° 0 mm 5 mps 749 mmHg 71%
    15:00 +15°C° 0 mm 5 mps 749 mmHg 70%
    16:00 +15°C° 0 mm 4 mps 749 mmHg 68%
    17:00 +17°C° 0 mm 4 mps 749 mmHg 67%
    18:00 +16°C° 0 mm 3 mps 750 mmHg 71%
    19:00 +14°C° 0 mm 3 mps 750 mmHg 74%
    20:00 +14°C° 0 mm 2 mps 750 mmHg 78%
    21:00 +13°C° 0 mm 2 mps 750 mmHg 80%
    22:00 +12°C° 0 mm 2 mps 751 mmHg 82%
    23:00 +10°C° 0 mm 3 mps 751 mmHg 84%

    31 May, Friday

    Time Temperature Precipitation Wind Pressure Humidity
    00:00 +10°C° 0 mm 2 mps 751 mmHg 87%
    01:00 +9°C° 0 mm 2 mps 752 mmHg 90%
    02:00 +8°C° 0 mm 2 mps 752 mmHg 93%
    03:00 +8°C° 0 mm 2 mps 752 mmHg 93%
    04:00 +8°C° 0 mm 2 mps 752 mmHg 93%
    05:00 +7°C° 0 mm 2 mps 753 mmHg 93%
    06:00 +9°C° 0 mm 2 mps 753 mmHg 87%
    07:00 +12°C° 0 mm 2 mps 753 mmHg 80%
    08:00 +13°C° 0 mm 3 mps 754 mmHg 74%
    09:00 +14°C° 0 mm 3 mps 754 mmHg 67%
    10:00 +16°C° 0 mm 3 mps 754 mmHg 61%
    11:00 +17°C° 0 mm 3 mps 754 mmHg 55%
    12:00 +18°C° 0 mm 3 mps 754 mmHg 53%
    13:00 +18°C° 0 mm 3 mps 754 mmHg 52%
    14:00 +19°C° 0 mm 3 mps 754 mmHg 50%
    15:00 +19°C° 0 mm 2 mps 754 mmHg 52%
    16:00 +19°C° 0 mm 2 mps 754 mmHg 54%
    17:00 +19°C° 0 mm 2 mps 754 mmHg 56%
    18:00 +17°C° 0 mm 2 mps 754 mmHg 64%
    19:00 +16°C° 0 mm 2 mps 755 mmHg 72%
    20:00 +15°C° 0 mm 2 mps 755 mmHg 79%
    21:00 +14°C° 0 mm 1 mps 755 mmHg 82%
    22:00 +12°C° 0 mm 1 mps 755 mmHg 84%
    23:00 +10°C° 0 mm 0 mps 755 mmHg 86%
    Show more